[[{"header":{"parameterUnit":"m.s-1","parameterCategory":1,"la1":30.2991,"la2":30.254,"lo1":-89.0895,"lo2":-89.0444,"dy":0.0017,"dx":0.0017,"nx":28,"ny":28,"refTime":"2024-04-11T21:00:00:Z","depth":0,"parameterNumber":2,"parameterNumberName":"U-component_of_WINDS"},"data":[0,0,0,0,0,0,0,0,0,0,0,0,0,0,0,0,0,0,0,0,0,0,0,0,0,0,0,0,0,0,0,0,0,0,0,0,0,0,0,0,0,0,0,0,0,0,0,0,0,0,0,0,0,0,0,0,0,0,3.0067,3.0068,0,3.0175,3.0177,3.0178,3.0126,3.0123,3.012,3.0118,3.0233,3.0239,3.0244,0,0,0,0,0,0,0,0,0,0,0,0,0,2.9817,2.9822,3.0067,3.0068,3.0069,3.0175,3.0177,3.0178,3.0126,3.0123,3.012,3.0116,3.0231,3.0238,3.0245,0,0,0,0,0,0,0,0,0,0,0,0,0,2.9926,2.9824,3.0066,3.0056,3.0056,3.0175,3.0177,3.0179,3.0127,3.0123,3.0119,3.0115,3.0229,3.0237,3.0246,3.0382,0,0,3.0272,3.0275,0,0,0,0,0,0,0,0,2.992,2.9935,3.0056,3.0057,3.0057,3.0133,3.0131,3.0247,3.0128,3.01,3.0118,3.0113,3.0203,3.0214,3.0243,3.0387,3.0392,3.0272,3.0277,3.0281,3.0284,0,0,0,0,0,0,0,2.9912,2.993,3.011,3.0058,3.0059,3.0047,3.0058,3.0153,3.0174,3.0102,3.0099,3.0112,3.0203,3.0235,3.0246,3.0394,3.0272,3.028,3.0285,3.0288,3.0655,3.066,0,0,0,0,0,0,2.9905,2.9924,3.0106,3.0113,2.9977,3.0055,3.0067,3.0113,3.0173,3.0178,3.0116,3.0109,3.0223,3.0236,3.025,3.0413,3.0281,3.0289,3.0294,3.0651,3.0656,3.0661,0,0,0,0,0,0,2.9899,2.9921,3.0102,3.0018,3.004,3.0064,3.0116,3.0117,3.015,3.0183,3.0187,3.0145,3.022,3.0238,3.0349,3.0416,3.0293,3.0301,3.0645,3.0652,3.0659,3.0741,0,0,0,0,0,0,2.9893,2.992,2.9971,3.0019,3.0044,3.0199,3.012,3.0122,3.0164,3.0157,3.0211,3.0216,3.0218,3.0337,3.0358,3.0426,3.0307,3.0639,3.0648,3.0657,3.0733,3.075,3.0765,0,0,0,0,0,2.9884,2.9991,2.9974,2.9996,3.0109,3.0203,3.0217,3.0216,3.017,3.0222,3.0243,3.0215,3.0406,3.0349,3.0372,3.0444,3.0635,3.0646,3.0656,3.0725,3.0747,3.0765,0,0,0,0,0,0,2.9951,2.9997,2.9979,3.0104,3.015,3.0194,3.026,3.0239,3.03,3.0291,3.0288,3.0301,3.0416,3.0441,3.0377,3.0579,3.0513,3.0529,3.0558,3.0579,3.0595,3.0587,3.0314,0,0,0,0,0,2.998,3.0052,3.0088,3.0196,3.0219,3.0236,3.0277,3.0272,3.0319,3.0339,3.0368,3.0417,3.0488,3.0535,3.0602,3.0736,3.0747,3.0797,3.0813,3.0826,3.084,3.0913,3.0936,3.0696,3.0696,3.0696,0,0,3.0042,3.0076,3.0121,3.021,3.0245,3.032,3.0252,3.0335,3.0391,3.0352,3.0458,3.0482,3.0536,3.0659,3.0715,3.0684,3.0909,3.084,3.085,3.0857,3.0926,3.0949,3.0969,3.0703,3.0702,3.07,0,0,3.0193,3.0225,3.0318,3.0354,3.0407,3.0417,3.044,3.0487,3.05,3.0607,3.058,3.0647,3.0769,3.0808,3.0845,3.101,3.0986,3.1032,3.1117,3.1189,3.1208,3.1224,3.1284,3.1305,3.1046,3.1046,3.1046,0,3.0263,3.0374,3.0369,3.0453,3.0493,3.046,3.0555,3.059,3.0663,3.0692,3.0655,3.0808,3.0842,3.0974,3.1014,3.1045,3.1071,3.1026,3.1205,3.1222,3.1237,3.1294,3.1316,3.1051,3.105,3.105,3.1049,0,3.0457,3.0535,3.0604,3.0673,3.0721,3.081,3.082,3.0869,3.086,3.0875,3.0984,3.1024,3.1098,3.1129,3.1122,3.1261,3.124,3.1204,3.1139,3.1266,3.1319,3.134,3.1059,3.1057,3.1055,3.1054,0,0,3.0654,3.0719,3.0745,3.0776,3.0832,3.0892,3.098,3.1052,3.1094,3.1146,3.122,3.1324,3.1291,3.1332,3.1329,3.1392,3.1521,3.1349,3.135,3.1379,3.1677,3.1703,3.1729,3.1505,3.1509,3.1512,3.1672,0,3.0809,3.0961,3.0959,3.1101,3.1173,3.1142,3.1219,3.1262,3.1278,3.1342,3.136,3.1434,3.1385,3.141,3.147,3.1492,3.158,3.1481,3.1575,3.1579,3.1563,3.1756,3.1785,3.1934,3.1693,3.1697,3.1699,0,3.1009,3.1066,3.1215,3.126,3.129,3.1359,3.1424,3.1485,3.1534,3.1541,3.1587,3.1574,3.1665,3.1596,3.1722,3.1654,3.1692,3.1709,3.1715,3.1724,3.1647,3.1771,3.1981,3.2004,3.1732,3.1729,3.1727,0,3.1138,3.1252,3.1355,3.1383,3.1438,3.1487,3.1513,3.1557,3.1601,3.1658,3.1686,3.1755,3.1792,3.1846,3.1852,3.1801,3.1978,3.191,3.1988,3.1988,3.2026,3.2024,3.2246,3.2051,3.2051,3.205,3.205,0,3.1311,3.1403,3.1413,3.1477,3.158,3.1577,3.1679,3.1701,3.1741,3.1809,3.1787,3.1852,3.1856,3.1923,3.1928,3.2032,3.2049,3.2058,3.2058,3.206,3.2059,3.2085,3.2075,3.2056,3.2055,3.2054,3.2053,0,3.1472,3.1483,3.1593,3.1636,3.1649,3.1723,3.1761,3.1822,3.1835,3.1922,3.1942,3.1964,3.2042,3.2053,3.2144,3.2148,3.2272,3.2261,3.2255,3.2254,3.233,3.2323,3.2578,3.2611,3.2394,3.2396,3.2398,0,3.1582,3.1652,3.1702,3.1745,3.1773,3.1844,3.1887,3.1888,3.1934,3.1995,3.2049,3.2124,3.2184,3.231,3.2335,3.2405,3.2396,3.248,3.2406,3.2406,3.2397,3.2393,3.24,3.2495,3.2497,3.2499,3.2501,0,3.1776,3.1777,3.184,3.1905,3.1957,3.2009,3.2058,3.2095,3.2101,3.2155,3.2233,3.228,3.2372,3.2447,3.2516,3.2544,3.2524,3.2523,3.2545,3.2548,3.2541,3.2546,3.2294,3.2518,3.2516,3.2515,3.2514,3.2513,3.1915,3.1976,3.202,3.2091,3.2127,3.2173,3.2233,3.2253,3.2318,3.2392,3.2389,3.2475,3.2523,3.2613,3.2645,3.2714,3.2686,3.2718,3.2726,3.2734,3.2741,3.253,3.2726,3.2726,3.2725,3.2725,3.2725,0,3.2108,3.2135,3.22,3.2268,3.2324,3.2298,3.2351,3.24,3.2475,3.2521,3.258,3.267,3.2742,3.2773,3.2844,3.2893,3.2886,3.2912,3.2909,3.2916,3.2761,3.2735,3.2917,3.2917,3.2917,3.2917,3.2917,3.2917,3.2215,3.2316,3.2323,3.2442,3.2469,3.2552,3.2584,3.2627,3.2663,3.2764,3.2823,3.2842,3.2882,3.2956,3.3022,3.3029,3.3057,3.3087,3.309,3.2946,3.2926,3.2908,3.2883,3.3093,3.3093,3.3239,3.324,3.3241]},{"header":{"parameterUnit":"m.s-1","parameterCategory":1,"la1":30.2991,"la2":30.254,"lo1":-89.0895,"lo2":-89.0444,"dy":0.0017,"dx":0.0017,"nx":28,"ny":28,"refTime":"2024-04-11T21:00:00:Z","depth":0,"parameterNumber":3,"parameterNumberName":"V-component_of_WINDS"},"data":[0,0,0,0,0,0,0,0,0,0,0,0,0,0,0,0,0,0,0,0,0,0,0,0,0,0,0,0,0,0,0,0,0,0,0,0,0,0,0,0,0,0,0,0,0,0,0,0,0,0,0,0,0,0,0,0,0,0,0.8666,0.8664,0,0.8544,0.8543,0.8542,0.8476,0.8476,0.8475,0.8475,0.8345,0.8342,0.8339,0,0,0,0,0,0,0,0,0,0,0,0,0,0.8835,0.8832,0.8666,0.8664,0.8663,0.8545,0.8543,0.8541,0.8476,0.8476,0.8475,0.8475,0.8347,0.8343,0.8339,0,0,0,0,0,0,0,0,0,0,0,0,0,0.8742,0.8831,0.8666,0.8616,0.861,0.8545,0.8543,0.8541,0.8476,0.8476,0.8475,0.8475,0.8348,0.8343,0.8338,0.8312,0,0,0.8323,0.8321,0,0,0,0,0,0,0,0,0.8747,0.8736,0.8625,0.8619,0.8613,0.8525,0.8555,0.8464,0.8476,0.8527,0.8475,0.8475,0.8405,0.8395,0.8373,0.8305,0.83,0.8322,0.8319,0.8317,0.8316,0,0,0,0,0,0,0,0.8754,0.8741,0.8618,0.8623,0.8616,0.8597,0.8584,0.8537,0.8468,0.8522,0.8517,0.8504,0.8402,0.8378,0.8369,0.8298,0.8323,0.8318,0.8315,0.8313,0.82,0.82,0,0,0,0,0,0,0.8769,0.8747,0.8621,0.8614,0.8681,0.8595,0.858,0.8553,0.8469,0.8456,0.8504,0.8501,0.8386,0.8375,0.8364,0.8327,0.8317,0.8313,0.831,0.82,0.82,0.82,0,0,0,0,0,0,0.8773,0.8759,0.8626,0.8679,0.8661,0.8592,0.8563,0.8551,0.8527,0.8455,0.8442,0.8493,0.8386,0.8371,0.8325,0.8321,0.831,0.8306,0.82,0.82,0.82,0.8252,0,0,0,0,0,0,0.8778,0.8761,0.8751,0.8679,0.8658,0.8591,0.8563,0.8549,0.8519,0.8514,0.8441,0.8429,0.8385,0.8333,0.832,0.8314,0.8302,0.82,0.82,0.82,0.825,0.8254,0.8256,0,0,0,0,0,0.8785,0.877,0.8751,0.8737,0.8646,0.8591,0.8579,0.853,0.852,0.8509,0.8462,0.8431,0.8324,0.8329,0.8314,0.8306,0.82,0.82,0.82,0.8249,0.8253,0.8256,0,0,0,0,0,0,0.8842,0.876,0.8738,0.87,0.8653,0.858,0.8565,0.8536,0.849,0.8487,0.8426,0.841,0.8369,0.8333,0.834,0.8275,0.8259,0.8256,0.83,0.8304,0.8307,0.8316,0.8298,0,0,0,0,0,0.8851,0.8815,0.8744,0.8717,0.8695,0.8635,0.8609,0.8575,0.8524,0.8503,0.8453,0.8402,0.8357,0.8328,0.8283,0.8244,0.8226,0.8231,0.8235,0.8238,0.8236,0.8211,0.8212,0.82,0.82,0.82,0,0,0.8867,0.8818,0.8799,0.8728,0.8688,0.865,0.8618,0.858,0.8551,0.8496,0.845,0.8411,0.8351,0.8308,0.8286,0.8276,0.8235,0.8238,0.8241,0.8237,0.8211,0.8212,0.8213,0.82,0.82,0.82,0,0,0.8879,0.8839,0.8811,0.8772,0.8712,0.8671,0.8665,0.8595,0.8568,0.8521,0.8479,0.8442,0.8366,0.8324,0.8292,0.8286,0.8255,0.8273,0.8289,0.8266,0.8267,0.8267,0.8264,0.8264,0.8271,0.8271,0.8271,0,0.8907,0.8851,0.88,0.8765,0.8734,0.8684,0.8654,0.8618,0.8545,0.8524,0.8514,0.8416,0.8372,0.8318,0.8316,0.8293,0.8282,0.8281,0.8271,0.8271,0.8271,0.8267,0.8266,0.8274,0.8274,0.8273,0.8273,0,0.8887,0.8849,0.8834,0.8767,0.8734,0.8702,0.8644,0.8617,0.8585,0.8545,0.8496,0.8441,0.8383,0.8367,0.8336,0.8308,0.8303,0.8283,0.8265,0.8275,0.827,0.8268,0.8277,0.8276,0.8276,0.8275,0,0,0.8932,0.8837,0.8833,0.8801,0.873,0.8699,0.8663,0.8607,0.8584,0.8535,0.8502,0.8438,0.8419,0.8383,0.8346,0.8326,0.8323,0.8307,0.8305,0.8311,0.8287,0.8302,0.8302,0.8302,0.8301,0.8301,0.8291,0,0.8933,0.8869,0.8822,0.8775,0.8738,0.8689,0.8657,0.861,0.8571,0.8531,0.8487,0.8443,0.8421,0.8399,0.8376,0.8328,0.8317,0.8328,0.8269,0.8267,0.8286,0.8299,0.8316,0.8309,0.8289,0.8289,0.8289,0,0.8926,0.888,0.883,0.8762,0.8745,0.8718,0.8662,0.8626,0.857,0.8542,0.8503,0.8465,0.8422,0.8409,0.8348,0.8357,0.8329,0.8302,0.83,0.8292,0.8279,0.8291,0.8306,0.8305,0.8285,0.8286,0.8286,0,0.8962,0.8888,0.8848,0.8823,0.8743,0.8725,0.869,0.8634,0.8603,0.8553,0.8532,0.8478,0.8448,0.8406,0.8353,0.8348,0.8297,0.828,0.8272,0.8273,0.8263,0.8265,0.8274,0.8247,0.8247,0.8247,0.8247,0,0.8968,0.8939,0.8864,0.8839,0.8804,0.8749,0.8716,0.8676,0.8626,0.8591,0.8545,0.8513,0.8446,0.8404,0.8363,0.8318,0.8305,0.828,0.8269,0.8284,0.8287,0.8265,0.8264,0.8247,0.8247,0.8247,0.8247,0,0.9003,0.8952,0.8905,0.8833,0.8815,0.8792,0.8729,0.8702,0.8661,0.8617,0.8603,0.8537,0.8486,0.8429,0.8359,0.8331,0.8288,0.8273,0.8308,0.8302,0.8297,0.8298,0.8292,0.8287,0.8265,0.8265,0.8265,0,0.901,0.8987,0.8913,0.8887,0.8855,0.8814,0.8782,0.8726,0.8695,0.8628,0.8608,0.8554,0.8508,0.8428,0.8372,0.8318,0.83,0.8302,0.8291,0.8307,0.8299,0.8301,0.8297,0.8305,0.8305,0.8306,0.8306,0,0.9028,0.9003,0.8961,0.8909,0.8873,0.8829,0.8783,0.8764,0.8698,0.8664,0.8613,0.8577,0.8505,0.8451,0.839,0.8351,0.8317,0.831,0.8305,0.8319,0.834,0.8328,0.8316,0.831,0.831,0.8309,0.8309,0.8309,0.9048,0.9025,0.8969,0.8922,0.8882,0.884,0.8811,0.8765,0.8722,0.8661,0.863,0.8578,0.8519,0.8433,0.8396,0.8352,0.8341,0.8335,0.8333,0.8332,0.8335,0.8348,0.8341,0.8341,0.8341,0.834,0.834,0,0.9062,0.9024,0.8982,0.8919,0.8882,0.8855,0.8802,0.8772,0.8728,0.8677,0.8633,0.8572,0.8519,0.8459,0.8402,0.8378,0.8361,0.8365,0.8366,0.8357,0.8349,0.8359,0.838,0.838,0.838,0.838,0.838,0.838,0.9065,0.9024,0.8992,0.8929,0.889,0.8841,0.8813,0.8772,0.8732,0.8667,0.8623,0.8585,0.8529,0.8467,0.8417,0.84,0.838,0.8389,0.8368,0.8361,0.8358,0.8355,0.8364,0.8386,0.8386,0.8379,0.8379,0.8379]}]]